Location: Diebersbach
(48.5163°N, 8.0558°E)
Time: 16:33:28
(UTC+00:00)

Cosmos 1812 - Pass Details

Date: 20 June 2021
Orbit: 516 x 519 km, 82.5° (Epoch: 30 July)

Event Time Altitude Azimuth Distance (km) Brightness Sun altitude
Rises 02:03:29 0° 355° (N) 2,649 7.1 -10.2°
Reaches altitude 10° 02:05:41 10° 1° (N) 1,757 6.3 -10.0°
Maximum altitude 02:09:26 49° 77° (ENE) 676 3.6 -9.6°
Drops below altitude 10° 02:13:09 10° 153° (SSE) 1,742 5.1 -9.3°
Sets 02:15:19 0° 159° (SSE) 2,624 6.0 -9.1°
